This is the latest recevied weather packets stored in our database for station/object K3CHZ. If no packets are shown the sender has not sent any weather packets the latest 10 day(s).
| Time | Temp. | Humidity | Pressure | Rain* | Wind** | Luminosity | Snow |
|---|---|---|---|---|---|---|---|
| 1777510942 | 11.67° C | 95% | 1007.6 hPa | 20.32 mm | - | - | - |
| 1777510641 | 11.67° C | 95% | 1008.2 hPa | 20.32 mm | - | - | - |
| 1777510343 | 11.67° C | 95% | 1007.9 hPa | 22.86 mm | - | - | - |
| 1777510043 | 11.67° C | 95% | 1008.1 hPa | 25.4 mm | - | - | - |
| 1777509742 | 11.67° C | 95% | 1008.2 hPa | 27.94 mm | - | - | - |
| 1777509442 | 11.67° C | 95% | 1007.6 hPa | 27.94 mm | - | - | - |
| 1777509142 | 11.67° C | 95% | 1006.8 hPa | 33.02 mm | - | - | - |
| 1777508839 | 11.67° C | 95% | 1007.1 hPa | 33.02 mm | - | - | - |
| 1777508539 | 11.67° C | 95% | 1007.7 hPa | 35.56 mm | - | - | - |
| 1777508239 | 11.67° C | 95% | 1007.7 hPa | 38.1 mm | - | - | - |
| 1777507939 | 11.67° C | 95% | 1007.7 hPa | 38.1 mm | - | - | - |
| 1777507639 | 11.67° C | 95% | 1007.7 hPa | 43.18 mm | - | - | - |
| 1777507338 | 12.22° C | 95% | 1007.7 hPa | 45.72 mm | - | - | - |
| 1777507039 | 12.22° C | 95% | 1007.8 hPa | 45.72 mm | - | - | - |
| 1777506739 | 12.22° C | 95% | 1007.7 hPa | 48.26 mm | - | - | - |
| 1777506440 | 12.22° C | 95% | 1007.8 hPa | 45.72 mm | - | - | - |
| 1777506138 | 12.22° C | 95% | 1007.8 hPa | 48.26 mm | - | - | - |
| 1777505839 | 12.22° C | 95% | 1007.7 hPa | 50.8 mm | - | - | - |
| 1777505538 | 12.22° C | 94% | 1007.5 hPa | 48.26 mm | - | - | - |
| 1777505240 | 12.22° C | 94% | 1007.5 hPa | 50.8 mm | - | - | - |
| 1777504951 | 12.22° C | 94% | 1007.4 hPa | 50.8 mm | - | - | - |
| 1777504652 | 12.22° C | 94% | 1007.4 hPa | 48.26 mm | - | - | - |
| 1777504351 | 12.22° C | 94% | 1007.8 hPa | 50.8 mm | - | - | - |
| 1777504051 | 12.22° C | 94% | 1007.8 hPa | 48.26 mm | - | - | - |
| 1777503752 | 12.22° C | 94% | 1007.8 hPa | 45.72 mm | - | - | - |
* Rain latest hour (hover to see other rain measurements)
** Current wind speed in m/s (hover to see current wind gust speed)